Regional Weather Roundup
Issued by NWS

Current Version | Previous Version | Text Only | Print | Product List | Glossary On
Versions: 1 2 3 4 5 6 7 8 9 10 11 12 13 14 15 16 17 18 19 20 21 22 23 24 25 26 27
000
ASUS42 KFFC 062003
RWRGA
WEATHER ROUNDUP FOR GEORGIA
NATIONAL WEATHER SERVICE PEACHTREE CITY GA
400 PM EDT FRI MAY 06 2016

NOTE: "FAIR" INDICATES FEW OR NO CLOUDS BELOW 12,000 FEET WITH NO
SIGNIFICANT WEATHER AND/OR OBSTRUCTIONS TO VISIBILITY.

* = USE WITH CAUTION. THE STATIONS MARKED WITH AN ASTERISK MAY NOT
REPORT WEATHER SUCH AS PRECIPITATION, FOG, OR THUNDER AND ARE NOT
QUALITY CONTROLLED BY NWS.

THE REMARK "TC" DENOTES TEMPERATURE READING IN DEGREES CELSIUS.

GAZ001>058-062100-
NORTH GEORGIA

CITY           SKY/WX    TMP DP  RH WIND       PRES   REMARKS
ATLANTA        PTSUNNY   70  39  32 N21G29    29.91F
ATHENS         MOSUNNY   71  37  28 NW12G18   29.86S
CHAMBLEE       PTSUNNY   69  41  36 NW15G25   29.90F
PEACHTREE CITY SUNNY     71  38  29 NW18G24   29.92F
ROME           PTSUNNY   71  41  33 N15       29.93F
WEST ATLANTA   PTSUNNY   68  38  33 N15G28    29.91F
GAINESVILLE    SUNNY     68  38  33 N18       29.91S
CARTERSVILLE   LGT RAIN  69  41  36 N14G21    29.94F


CITY           SKY/WX    TMP DP  RH WIND       PRES   REMARKS
DALTON*        PTSUNNY   68  45  42 N8G16     29.94F
LAWRENCEVILLE* PTSUNNY   68  39  34 NW14G21   29.89F
MARIETTA       PTSUNNY   67  38  34 NW12G23   29.91F
KENNESAW*      MOSUNNY   66  37  34 N8G25     29.91F
CANTON*        MOSUNNY   68  23  18 NW7G20    29.92F
BLAIRSVILLE*     N/A    N/A N/A N/A MISG      29.92F
$$

GAZ059>098-102>109-062100-
CENTRAL GEORGIA

CITY           SKY/WX    TMP DP  RH WIND       PRES   REMARKS
AUGUSTA-BUSH   SUNNY     74  44  34 W16       29.82F
AUGUSTA-DANIEL PTSUNNY   73  42  32 NW9       29.83F
COLUMBUS       MOSUNNY   72  40  31 N15G25    29.91F
MACON          PTSUNNY   71  43  36 N9G20     29.88F
ROBINS AFB     MOSUNNY   71  44  38 N15       29.87F


CITY           SKY/WX    TMP DP  RH WIND       PRES   REMARKS
LAGRANGE*      PTSUNNY   72  50  44 N10G18    29.92F
SYLVANIA*      CLOUDY    72  49  42 NW8       29.84F
MILLEDGEVILLE* CLOUDY    70  43  37 NW3       29.86F
$$

GAZ099>101-110>166-062100-
SOUTH GEORGIA

CITY           SKY/WX    TMP DP  RH WIND       PRES   REMARKS
SAVANNAH       PTSUNNY   74  44  34 W12       29.84S
VALDOSTA       SUNNY     73  44  35 VRB5G17   29.87F
ALMA           MOSUNNY   73  46  38 NW9       29.86F
ST SIMONS      MOSUNNY   68  50  52 SE13      29.85F
FT STEWART     MOSUNNY   74  44  34 NW6       29.82F
ALBANY         MOSUNNY   75  40  28 N13G22    29.90F
HUNTER AFB     MOSUNNY   74  47  38 W10       29.81F
MOODY AFB      MOSUNNY   73  43  34 N14       29.86F
BRUNSWICK      PTSUNNY   79  46  31 CALM      29.85F


CITY           SKY/WX    TMP DP  RH WIND       PRES   REMARKS
BAINBRIDGE*    SUNNY     73  43  33 N15       29.91F
MOULTRIE*      MOSUNNY   72  43  35 W8G16     29.90S
VIDALIA*       MOSUNNY   72  46  40 W5G17     29.86F
WAYCROSS*      MOSUNNY   72  46  40 N8        29.85F
DOUGLAS*       MOSUNNY   73  43  33 NW10G16   29.88F
$$




USA.gov is the U.S. government's official web portal to all federal, state and local government web resources and services.